Regional Weather Roundup
Issued by NWS

Home | Current Version | Previous Version | Graphics & Text | Print | Product List | Glossary On
Versions: 1 2 3 4 5 6 7 8 9 10 11 12 13 14 15 16 17 18 19 20 21 22 23 24 25 26 27 28 29 30 31 32 33 34 35 36 37 38 39 40 41 42 43 44 45 46 47 48 49 50
000
ASUS43 KTOP 241159
RWRKS

WEATHER ROUNDUP FOR KANSAS
NATIONAL WEATHER SERVICE GOODLAND KS
600 AM CST MON NOV 24 2014

NOTE:  "FAIR" INDICATES FEW OR NO CLOUDS BELOW 12,000 FEET WITH NO
SIGNIFICANT WEATHER AND/OR OBSTRUCTIONS TO VISIBILITY.

KSZ001>006-013>018-027>032-041>047-241300-
NORTHWEST KANSAS

CITY           SKY/WX    TMP DP  RH WIND       PRES   REMARKS
GOODLAND       CLEAR     26  12  55 W14       29.83R WCI  14
6HR MIN TEMP:  24; 6HR MAX TEMP:  30;

HAYS           CLEAR     30  12  47 W14       29.78R WCI  20
HILL CITY      CLEAR     32  16  51 W14       29.77R WCI  22
6HR MIN TEMP:  31; 6HR MAX TEMP:  36;

RUSSELL        CLEAR     31  20  63 W14       29.75R WCI  21
6HR MIN TEMP:  29; 6HR MAX TEMP:  34;

$$

KSZ061>065-074>080-084>089-241300-
SOUTHWEST KANSAS

CITY           SKY/WX    TMP DP  RH WIND       PRES   REMARKS
DODGE CITY     CLEAR     31  16  54 W18       29.86R WCI  19
6HR MIN TEMP:  30; 6HR MAX TEMP:  33;

ELKHART          N/A    N/A N/A N/A MISG        N/A
GARDEN CITY    CLEAR     29  17  61 W13       29.87R WCI  19
6HR MIN TEMP:  28; 6HR MAX TEMP:  33;

GREAT BEND     CLEAR     32  16  51 W16       29.80R WCI  21
LIBERAL        CLEAR     28  18  64 W13       29.93S WCI  18
$$

KSZ066>073-081>083-090>101-241300-
SOUTHEAST KANSAS

CITY           SKY/WX    TMP DP  RH WIND       PRES   REMARKS
CHANUTE        CLEAR     35  27  72 W10       29.73R WCI  27
6HR MIN TEMP:  35; 6HR MAX TEMP:  43;

COFFEYVILLE    CLEAR     37  27  67 W9        29.77R
6HR MIN TEMP:  36; 6HR MAX TEMP:  43;

HUTCHINSON     CLEAR     34  20  56 W14       29.78R WCI  25
6HR MIN TEMP:  33; 6HR MAX TEMP:  41;

MEDICINE LODGE   N/A     34  20  56 W13       29.83S WCI  25
NEWTON         CLEAR     34  19  55 W13       29.76S WCI  25
PARSONS        CLEAR     36  28  73 W8        29.76R
6HR MIN TEMP:  36; 6HR MAX TEMP:  43;

WICHITA INTL   PTCLDY    36  22  56 W18       29.77R WCI  26
6HR MIN TEMP:  35; 6HR MAX TEMP:  42;

WICHITA JABRA  CLEAR     35  22  58 W13       29.76R WCI  26
6HR MIN TEMP:  34; 6HR MAX TEMP:  40;

WICHITA MCCONL CLEAR     37  21  52 W9        29.77R
WINFIELD       CLEAR     33  26  75 W9        29.81R
6HR MIN TEMP:  32; 6HR MAX TEMP:  40;

$$

KSZ007>012-019>026-033>040-048>060-102>105-241300-
NORTHEAST KANSAS

CITY           SKY/WX    TMP DP  RH WIND       PRES   REMARKS
CONCORDIA      PTCLDY    34  24  67 W13       29.69R WCI  25
6HR MIN TEMP:  34; 6HR MAX TEMP:  38;

EMPORIA        PTCLDY    33  26  75 W9        29.69R
6HR MIN TEMP:  32; 6HR MAX TEMP:  39;

LAWRENCE       CLEAR     32  23  69 NW15      29.66R WCI  22
6HR MIN TEMP:  32; 6HR MAX TEMP:  40;

MANHATTAN      CLOUDY    36  27  69 W5        29.70R
6HR MIN TEMP:  31; 6HR MAX TEMP:  38;

OLATHE IND     CLEAR     32  23  69 W15G25    29.64R WCI  22
6HR MIN TEMP:  32; 6HR MAX TEMP:  40;

OLATHE EXE     CLEAR     33  23  66 NW12G25   29.62R WCI  24
6HR MIN TEMP:  33; 6HR MAX TEMP:  41;

SALINA         MOCLDY    34  22  61 W10       29.74R WCI  26
6HR MIN TEMP:  33; 6HR MAX TEMP:  40;

TOPEKA BILLARD CLEAR     34  23  64 W9G20     29.68R
6HR MIN TEMP:  34; 6HR MAX TEMP:  42;

TOPEKA FORBES  CLEAR     33  23  66 NW10      29.67R WCI  25
6HR MIN TEMP:  33; 6HR MAX TEMP:  42;

$$


USA.gov is the U.S. government's official web portal to all federal, state and local government web resources and services.